When you browse on this site, cookies collect data to enhance your experience and personalize the content and advertising you see.
Visit our Privacy Policy to learn more. By continuing to use the site, you agree to this use of cookies and data.
  • In Hungary
  • List of Countries
  • For 7 days
  • Water Temperature
  • Satellite Maps
  • Weather Map
  • News
  • Weather Widgets
  • user-avatar
    Login

    Hourly Weather Ostrowek

    Today, 22 November, Thursday

    Time Temperature Precipitation Wind Pressure Humidity
    00:00 -2°C° 0 mm 1 mps 756 mmHg 78%
    01:00 -2°C° 0 mm 1 mps 756 mmHg 78%
    02:00 -2°C° 0 mm 1 mps 756 mmHg 79%
    03:00 -2°C° 0 mm 1 mps 755 mmHg 79%
    04:00 -2°C° 0 mm 1 mps 755 mmHg 79%
    05:00 -2°C° 0 mm 1 mps 755 mmHg 79%
    06:00 -3°C° 0 mm 1 mps 755 mmHg 79%
    07:00 -3°C° 0 mm 1 mps 755 mmHg 79%
    08:00 -4°C° 0 mm 0 mps 755 mmHg 79%
    09:00 -3°C° 0 mm 0 mps 755 mmHg 75%
    10:00 -2°C° 0 mm 0 mps 755 mmHg 70%
    11:00 -2°C° 0 mm 0 mps 755 mmHg 65%
    12:00 0°C° 0 mm 1 mps 755 mmHg 63%
    13:00 0°C° 0 mm 1 mps 755 mmHg 60%
    14:00 +1°C° 0 mm 1 mps 755 mmHg 58%
    15:00 0°C° 0 mm 1 mps 754 mmHg 61%
    16:00 -1°C° 0 mm 1 mps 754 mmHg 65%
    17:00 -1°C° 0 mm 1 mps 754 mmHg 69%
    18:00 -2°C° 0 mm 1 mps 754 mmHg 70%
    19:00 -2°C° 0 mm 1 mps 754 mmHg 71%
    20:00 -2°C° 0 mm 1 mps 754 mmHg 71%
    21:00 -2°C° 0 mm 1 mps 754 mmHg 72%
    22:00 -2°C° 0 mm 1 mps 754 mmHg 72%
    23:00 -2°C° 0 mm 1 mps 755 mmHg 73%

    Tomorrow, 23 November, Friday

    Time Temperature Precipitation Wind Pressure Humidity
    00:00 -2°C° 0 mm 1 mps 755 mmHg 74%
    01:00 -2°C° 0 mm 1 mps 755 mmHg 75%
    02:00 -2°C° 0 mm 1 mps 755 mmHg 76%
    03:00 -3°C° 0 mm 1 mps 755 mmHg 78%
    04:00 -3°C° 0 mm 1 mps 755 mmHg 79%
    05:00 -3°C° 0 mm 1 mps 755 mmHg 80%
    06:00 -4°C° 0 mm 0 mps 755 mmHg 81%
    07:00 -4°C° 0 mm 0 mps 755 mmHg 83%
    08:00 -4°C° 0 mm 0 mps 755 mmHg 84%
    09:00 -3°C° 0 mm 0 mps 755 mmHg 81%
    10:00 -1°C° 0 mm 1 mps 755 mmHg 77%
    11:00 -1°C° 0 mm 1 mps 756 mmHg 74%
    12:00 0°C° 0 mm 1 mps 755 mmHg 72%
    13:00 0°C° 0 mm 1 mps 755 mmHg 69%
    14:00 +1°C° 0 mm 1 mps 755 mmHg 67%
    15:00 0°C° 0 mm 1 mps 755 mmHg 71%
    16:00 -3°C° 0 mm 2 mps 755 mmHg 74%
    17:00 -3°C° 0 mm 2 mps 754 mmHg 78%
    18:00 -4°C° 0 mm 2 mps 754 mmHg 78%
    19:00 -4°C° 0 mm 2 mps 754 mmHg 79%
    20:00 -4°C° 0 mm 2 mps 754 mmHg 79%
    21:00 -4°C° 0 mm 2 mps 753 mmHg 79%
    22:00 -4°C° 0 mm 2 mps 753 mmHg 79%
    23:00 -4°C° 0 mm 2 mps 752 mmHg 78%

    Day after tomorrow, 24 November, Saturday

    Time Temperature Precipitation Wind Pressure Humidity
    00:00 -4°C° 0 mm 2 mps 752 mmHg 78%
    01:00 -4°C° 0 mm 2 mps 752 mmHg 77%
    02:00 -4°C° 0 mm 2 mps 751 mmHg 77%
    03:00 -4°C° 0 mm 2 mps 750 mmHg 78%
    04:00 -4°C° 0 mm 2 mps 750 mmHg 78%
    05:00 -4°C° 0 mm 2 mps 749 mmHg 79%
    06:00 -4°C° 0 mm 2 mps 749 mmHg 82%
    07:00 -4°C° 0 mm 2 mps 748 mmHg 85%
    08:00 -4°C° 0 mm 2 mps 748 mmHg 88%
    09:00 -3°C° 0 mm 2 mps 747 mmHg 87%
    10:00 -2°C° 0 mm 2 mps 747 mmHg 86%
    11:00 -1°C° 0 mm 2 mps 747 mmHg 84%
    12:00 +1°C° 0 mm 2 mps 747 mmHg 84%
    13:00 +1°C° 0 mm 2 mps 746 mmHg 84%
    14:00 +2°C° 0 mm 2 mps 746 mmHg 84%
    15:00 +1°C° 0 mm 2 mps 746 mmHg 87%
    16:00 -1°C° 0 mm 2 mps 745 mmHg 90%
    17:00 +1°C° 0 mm 1 mps 745 mmHg 93%
    18:00 +1°C° 0 mm 1 mps 745 mmHg 94%
    19:00 +1°C° 0 mm 1 mps 745 mmHg 94%
    20:00 0°C° 0 mm 1 mps 745 mmHg 95%
    21:00 +1°C° 0 mm 1 mps 745 mmHg 95%
    22:00 +1°C° 0 mm 1 mps 745 mmHg 95%
    23:00 +1°C° 0 mm 1 mps 745 mmHg 95%

    25 November, Sunday

    Time Temperature Precipitation Wind Pressure Humidity
    00:00 +1°C° 0 mm 1 mps 745 mmHg 95%
    01:00 +1°C° 0 mm 1 mps 745 mmHg 96%
    02:00 +1°C° 0 mm 1 mps 745 mmHg 96%
    03:00 +1°C° 0 mm 1 mps 745 mmHg 96%
    04:00 +1°C° 0 mm 1 mps 745 mmHg 96%
    05:00 +1°C° 0 mm 1 mps 745 mmHg 97%
    06:00 +1°C° 0 mm 1 mps 745 mmHg 97%
    07:00 +1°C° 0 mm 1 mps 745 mmHg 97%
    08:00 +1°C° 0 mm 1 mps 746 mmHg 97%
    09:00 -1°C° 0 mm 2 mps 746 mmHg 94%
    10:00 -1°C° 0 mm 2 mps 746 mmHg 92%
    11:00 -1°C° 0 mm 2 mps 746 mmHg 90%
    12:00 +1°C° 0 mm 2 mps 746 mmHg 87%
    13:00 +1°C° 0 mm 2 mps 746 mmHg 84%
    14:00 0°C° 0 mm 3 mps 746 mmHg 81%
    15:00 -1°C° 0 mm 2 mps 746 mmHg 84%
    16:00 -2°C° 0 mm 2 mps 746 mmHg 87%
    17:00 -3°C° 0 mm 2 mps 746 mmHg 89%
    18:00 -3°C° 0 mm 2 mps 746 mmHg 90%
    19:00 -3°C° 0 mm 2 mps 747 mmHg 92%
    20:00 -3°C° 0 mm 2 mps 747 mmHg 93%
    21:00 -3°C° 0 mm 2 mps 747 mmHg 92%
    22:00 -3°C° 0 mm 2 mps 747 mmHg 91%
    23:00 -3°C° 0 mm 2 mps 747 mmHg 90%

    26 November, Monday

    Time Temperature Precipitation Wind Pressure Humidity
    00:00 -3°C° 0 mm 2 mps 747 mmHg 89%
    01:00 -3°C° 0 mm 2 mps 747 mmHg 87%
    02:00 -3°C° 0 mm 2 mps 747 mmHg 85%
    03:00 -4°C° 0 mm 2 mps 747 mmHg 86%
    04:00 -4°C° 0 mm 2 mps 747 mmHg 86%
    05:00 -4°C° 0 mm 2 mps 747 mmHg 87%
    06:00 -4°C° 0 mm 2 mps 747 mmHg 87%
    07:00 -4°C° 0 mm 2 mps 747 mmHg 88%
    08:00 -5°C° 0 mm 2 mps 747 mmHg 88%
    09:00 -4°C° 0 mm 2 mps 747 mmHg 83%
    10:00 -3°C° 0 mm 2 mps 747 mmHg 78%
    11:00 -3°C° 0 mm 2 mps 747 mmHg 73%
    12:00 -2°C° 0 mm 2 mps 747 mmHg 70%
    13:00 -2°C° 0 mm 2 mps 747 mmHg 67%
    14:00 -2°C° 0 mm 2 mps 746 mmHg 64%
    15:00 -2°C° 0 mm 2 mps 746 mmHg 67%
    16:00 -3°C° 0 mm 2 mps 746 mmHg 71%
    17:00 -4°C° 0 mm 2 mps 746 mmHg 75%
    18:00 -4°C° 0 mm 2 mps 746 mmHg 75%
    19:00 -4°C° 0 mm 2 mps 746 mmHg 75%
    20:00 -4°C° 0 mm 2 mps 746 mmHg 75%
    21:00 -2°C° 0 mm 1 mps 746 mmHg 75%
    22:00 -2°C° 0 mm 1 mps 745 mmHg 76%
    23:00 -2°C° 0 mm 1 mps 745 mmHg 76%

    27 November, Tuesday

    Time Temperature Precipitation Wind Pressure Humidity
    00:00 -3°C° 0 mm 1 mps 745 mmHg 76%
    01:00 -3°C° 0 mm 1 mps 745 mmHg 76%
    02:00 -3°C° 0 mm 1 mps 745 mmHg 76%
    03:00 -3°C° 0 mm 1 mps 745 mmHg 78%
    04:00 -3°C° 0 mm 1 mps 745 mmHg 79%
    05:00 -3°C° 0 mm 1 mps 745 mmHg 80%
    06:00 -3°C° 0 mm 1 mps 745 mmHg 82%
    07:00 -5°C° 0 mm 2 mps 745 mmHg 85%
    08:00 -5°C° 0 mm 2 mps 745 mmHg 87%
    09:00 -4°C° 0 mm 2 mps 746 mmHg 85%
    10:00 -4°C° 0 mm 3 mps 746 mmHg 84%
    11:00 -4°C° 0 mm 3 mps 747 mmHg 82%
    12:00 -4°C° 0 mm 3 mps 747 mmHg 80%
    13:00 -2°C° 0 mm 3 mps 748 mmHg 78%
    14:00 -2°C° 0 mm 3 mps 748 mmHg 76%
    15:00 -2°C° 0 mm 3 mps 748 mmHg 77%
    16:00 -4°C° 0 mm 3 mps 749 mmHg 77%
    17:00 -4°C° 0 mm 3 mps 749 mmHg 77%
    18:00 -4°C° 0 mm 3 mps 750 mmHg 75%
    19:00 -4°C° 0 mm 3 mps 750 mmHg 74%
    20:00 -4°C° 0 mm 3 mps 751 mmHg 72%
    21:00 -5°C° 0 mm 3 mps 752 mmHg 74%
    22:00 -5°C° 0 mm 3 mps 752 mmHg 76%
    23:00 -5°C° 0 mm 3 mps 753 mmHg 78%
    Show more